Location: Radomski Observatory
(40.2854°N, 79.5145°W)
Time: 03:57:26
(UTC-04:00)

Amateur Radio Satellites - All Passes

Search period start: 20 September 2014 03:27
Search period end: 21 September 2014 03:27
Location: Radomski Observatory, 40.2854°N, 79.5145°W

Satellite Date Start Highest point End Downlink Frequencies (MHz)
Time Altitude Azimuth
OPAL 20 Sep 03:38:39 03:41:12 14° 57° (ENE) 03:43:46 ?
JAS-1B 20 Sep 03:42:51 03:48:37 87° 285° (WNW) 03:54:22 435.800 - 435.900 CW/SSB
Oscar 16 20 Sep 03:46:32 03:51:11 35° 292° (WNW) 03:55:48 437.025 USB, Beacon 2401.1428
AO-Echo 20 Sep 03:56:19 04:01:02 53° 287° (WNW) 04:05:53 ?
PANSAT 20 Sep 03:58:08 04:00:10 14° 182° (S) 04:02:13 not established
Saudisat 1A 20 Sep 04:17:52 04:18:15 10° 253° (WSW) 04:18:38 436.775 MHz
Gurwin Techsat 1B 20 Sep 04:20:36 04:25:56 83° 285° (WNW) 04:31:15 435.225 FM
KITSAT 1 20 Sep 04:28:04 04:35:55 51° 52° (NE) 04:43:42 435.175 FM
ITAMSAT 1 20 Sep 04:30:42 04:35:20 33° 292° (WNW) 04:39:57 435.822 SSB
AO-7 20 Sep 04:31:48 04:38:22 25° 94° (E) 04:44:53 29.400 - 29.500 MHz
Uribyol 2 20 Sep 04:34:58 04:39:24 29° 293° (WNW) 04:43:50 436.500 FM
Oscar 19 20 Sep 04:50:02 04:50:54 10° 302° (WNW) 04:51:45 437.125 CW, 437.150 USB
ISS 20 Sep 04:51:47 04:54:17 19° 340° (NNW) 04:56:48 145.800 FM
TMSAT-1 20 Sep 04:57:33 05:02:42 52° 288° (WNW) 05:07:49 436.925 FM
Uosat F 20 Sep 05:06:55 05:11:27 33° 97° (E) 05:15:58 435.120 FM
AO-27 20 Sep 05:06:58 05:10:08 17° 298° (WNW) 05:13:18 436.795 MHz FM
OPAL 20 Sep 05:14:11 05:19:22 82° 254° (WSW) 05:24:37 ?
RS-15 20 Sep 05:23:49 05:34:54 84° 302° (WNW) 05:45:54 29.354 - 29.394 USB, Beacon 29.352 USB
JAS-1B 20 Sep 05:36:42 05:38:21 11° 305° (NW) 05:39:59 435.800 - 435.900 CW/SSB
JAS-2 20 Sep 05:45:31 05:49:11 16° 92° (E) 05:53:02 435.800 - 435.900 CW/SSB, 435.910 FM
STRAND 1 20 Sep 05:58:20 06:01:22 16° 62° (ENE) 06:04:24 ?
Hamsat 20 Sep 05:59:53 06:01:04 11° 90° (E) 06:02:16 145.90 MHz
Gurwin Techsat 1B 20 Sep 06:03:36 06:05:02 11° 302° (WNW) 06:06:28 435.225 FM
AO-7 20 Sep 06:23:30 06:31:43 69° 292° (WNW) 06:39:54 29.400 - 29.500 MHz
KITSAT 1 20 Sep 06:23:51 06:31:04 37° 252° (WSW) 06:38:15 435.175 FM
ISS 20 Sep 06:30:42 06:32:01 12° 0° (N) 06:33:19 145.800 FM
SO-50 20 Sep 06:33:11 06:36:56 22° 45° (NE) 06:40:41 436.795 FM
Uosat F 20 Sep 06:45:53 06:50:06 28° 293° (WNW) 06:54:20 435.120 FM
JAS-2 20 Sep 07:28:34 07:34:38 80° 285° (WNW) 07:41:30 435.800 - 435.900 CW/SSB, 435.910 FM
Hamsat 20 Sep 07:33:14 07:37:25 59° 285° (WNW) 07:41:33 145.90 MHz
STRAND 1 20 Sep 07:34:59 07:40:00 64° 258° (WSW) 07:45:05 ?
RS-15 20 Sep 07:39:59 07:49:05 29° 329° (NNW) 07:58:15 29.354 - 29.394 USB, Beacon 29.352 USB
ISS 20 Sep 08:07:12 08:09:44 20° 21° (NNE) 08:12:15 145.800 FM
UOSAT-12 20 Sep 08:08:36 08:11:48 18° 42° (NE) 08:14:58 437.025 FM, 437.400 FM
SO-50 20 Sep 08:13:05 08:17:48 54° 242° (WSW) 08:22:32 436.795 FM
AO-7 20 Sep 08:18:38 08:23:00 16° 312° (NW) 08:27:22 29.400 - 29.500 MHz
MaSat-1 20 Sep 08:26:16 08:31:02 46° 110° (ESE) 08:35:47 437.345 MHz
HO-68 20 Sep 08:39:08 08:40:13 10° 87° (E) 08:41:19 435.675 MHz FM
SO-67 20 Sep 08:40:57 08:44:22 60° 284° (WNW) 08:47:45 435.3500 MHz FM
JAS-2 20 Sep 09:16:27 09:18:59 13° 301° (WNW) 09:21:37 435.800 - 435.900 CW/SSB, 435.910 FM
ISS 20 Sep 09:43:26 09:46:46 78° 218° (SW) 09:50:05 145.800 FM
UOSAT-12 20 Sep 09:47:45 09:52:27 70° 241° (WSW) 09:57:04 437.025 FM, 437.400 FM
RS-15 20 Sep 09:59:29 10:06:40 19° 5° (N) 10:13:57 29.354 - 29.394 USB, Beacon 29.352 USB
MaSat-1 20 Sep 10:03:57 10:07:59 24° 306° (NW) 10:11:57 437.345 MHz
HO-68 20 Sep 10:21:53 10:29:04 71° 104° (ESE) 10:36:13 435.675 MHz FM
FUNcube-1 20 Sep 10:36:55 10:39:48 16° 91° (E) 10:42:39 145.950 - 145.970 MHz USB
Oscar 11 20 Sep 10:44:13 10:48:24 45° 99° (E) 10:52:32 145.825 FM, Beacon 2401.500 USB
UKube-1 20 Sep 11:01:29 11:05:52 85° 284° (WNW) 11:10:13 145.840 MHz, 145.915 MHz
Sapphire 20 Sep 11:12:09 11:13:30 11° 101° (ESE) 11:14:50 437.095 MHz 1200 baud AX-25 AFSK
PCSat 20 Sep 11:36:04 11:40:05 22° 106° (ESE) 11:44:08 145.825 MHz
HO-68 20 Sep 12:10:45 12:16:06 23° 302° (WNW) 12:21:27 435.675 MHz FM
FUNcube-1 20 Sep 12:11:59 12:16:26 48° 287° (WNW) 12:20:49 145.950 - 145.970 MHz USB
RS-15 20 Sep 12:13:38 12:23:38 37° 39° (NE) 12:33:54 29.354 - 29.394 USB, Beacon 29.352 USB
Oscar 11 20 Sep 12:21:30 12:24:12 16° 295° (WNW) 12:26:53 145.825 FM, Beacon 2401.500 USB
JAS-1B 20 Sep 12:39:38 12:43:52 16° 58° (ENE) 12:47:46 435.800 - 435.900 CW/SSB
Oscar 19 20 Sep 12:46:34 12:49:54 18° 62° (ENE) 12:53:15 437.125 CW, 437.150 USB
Sapphire 20 Sep 12:50:39 12:56:03 89° 118° (ESE) 13:01:31 437.095 MHz 1200 baud AX-25 AFSK
AO-27 20 Sep 13:08:12 13:10:06 12° 59° (ENE) 13:12:01 436.795 MHz FM
PCSat 20 Sep 13:17:51 13:23:06 51° 303° (WNW) 13:28:24 145.825 MHz
Oscar 10/S400 20 Sep 13:20:53 13:30:01 12° 153° (SSE) 13:37:18 145.825 - 145.975 CW/USB, Beacon 145.810 USB
Oscar 16 20 Sep 13:23:45 13:28:32 39° 69° (ENE) 13:33:21 437.025 USB, Beacon 2401.1428
AO-Echo 20 Sep 13:31:50 13:35:14 20° 65° (ENE) 13:38:38 ?
Gurwin Techsat 1B 20 Sep 14:03:26 14:07:04 19° 63° (ENE) 14:10:43 435.225 FM
ITAMSAT 1 20 Sep 14:08:48 14:13:39 43° 70° (ENE) 14:18:31 435.822 SSB
Uribyol 2 20 Sep 14:12:39 14:17:36 49° 71° (ENE) 14:22:36 436.500 FM
Oscar 19 20 Sep 14:23:37 14:28:44 60° 259° (W) 14:33:54 437.125 CW, 437.150 USB
JAS-1B 20 Sep 14:25:00 14:33:39 78° 73° (ENE) 14:40:51 435.800 - 435.900 CW/SSB
RS-15 20 Sep 14:25:55 14:37:00 75° 243° (WSW) 14:48:34 29.354 - 29.394 USB, Beacon 29.352 USB
Sapphire 20 Sep 14:36:58 14:40:15 16° 318° (NW) 14:43:33 437.095 MHz 1200 baud AX-25 AFSK
TMSAT-1 20 Sep 14:38:53 14:43:22 29° 67° (ENE) 14:47:52 436.925 FM
AO-27 20 Sep 14:43:40 14:48:50 88° 256° (WSW) 14:54:03 436.795 MHz FM
Oscar 16 20 Sep 15:03:46 15:07:58 25° 265° (W) 15:12:13 437.025 USB, Beacon 2401.1428
AO-Echo 20 Sep 15:09:15 15:13:44 41° 261° (W) 15:18:12 ?
AO-7 20 Sep 15:30:15 15:37:31 36° 59° (ENE) 15:44:46 29.400 - 29.500 MHz
Gurwin Techsat 1B 20 Sep 15:41:23 15:46:35 56° 260° (W) 15:51:48 435.225 FM
ITAMSAT 1 20 Sep 15:49:20 15:53:18 22° 266° (W) 15:57:19 435.822 SSB
Uribyol 2 20 Sep 15:53:42 15:57:20 19° 267° (W) 16:01:01 436.500 FM
TMSAT-1 20 Sep 16:18:22 16:23:09 35° 263° (W) 16:27:58 436.925 FM
JAS-1B 20 Sep 16:18:36 16:24:33 21° 267° (W) 16:29:56 435.800 - 435.900 CW/SSB
Uosat F 20 Sep 16:19:39 16:24:22 44° 70° (ENE) 16:29:07 435.120 FM
RS-15 20 Sep 16:41:32 16:47:27 16° 262° (W) 16:53:30 29.354 - 29.394 USB, Beacon 29.352 USB
Saudisat 1A 20 Sep 16:41:42 16:45:07 22° 112° (ESE) 16:48:34 436.775 MHz
AO-7 20 Sep 17:21:54 17:29:58 54° 258° (WSW) 17:38:04 29.400 - 29.500 MHz
OPAL 20 Sep 17:25:17 17:29:39 27° 97° (E) 17:33:56 ?
JAS-2 20 Sep 17:41:45 17:46:32 37° 69° (ENE) 17:51:17 435.800 - 435.900 CW/SSB, 435.910 FM
Uosat F 20 Sep 17:59:41 18:03:21 20° 266° (W) 18:07:02 435.120 FM
MaSat-1 20 Sep 18:20:05 18:23:53 79° 64° (ENE) 18:27:05 437.345 MHz
Saudisat 1A 20 Sep 18:20:23 18:24:29 38° 309° (NW) 18:28:37 436.775 MHz
Hamsat 20 Sep 18:25:28 18:29:50 90° 78° (ENE) 18:34:13 145.90 MHz
KITSAT 1 20 Sep 18:56:15 19:03:23 36° 108° (ESE) 19:10:31 435.175 FM
OPAL 20 Sep 19:03:52 19:08:33 36° 294° (WNW) 19:13:09 ?
SO-67 20 Sep 19:13:16 19:16:27 36° 73° (ENE) 19:19:39 435.3500 MHz FM
JAS-2 20 Sep 19:27:39 19:31:48 23° 266° (W) 19:35:55 435.800 - 435.900 CW/SSB, 435.910 FM
STRAND 1 20 Sep 19:46:07 19:51:02 45° 99° (E) 19:55:57 ?
Sapphire 20 Sep 19:58:03 20:00:05 12° 38° (NE) 20:02:07 437.095 MHz 1200 baud AX-25 AFSK
PCSat 20 Sep 20:23:45 20:27:35 19° 45° (NE) 20:31:23 145.825 MHz
SO-67 20 Sep 20:48:24 20:49:38 12° 268° (W) 20:50:52 435.3500 MHz FM
HO-68 20 Sep 20:49:41 20:56:29 50° 67° (ENE) 21:03:20 435.675 MHz FM
KITSAT 1 20 Sep 20:50:37 20:58:28 53° 307° (NW) 21:06:22 435.175 FM
STRAND 1 20 Sep 21:26:01 21:29:55 22° 295° (WNW) 21:33:47 ?
FUNcube-1 20 Sep 21:34:00 21:36:01 13° 62° (ENE) 21:38:03 145.950 - 145.970 MHz USB
Oscar 11 20 Sep 21:38:47 21:42:43 34° 70° (ENE) 21:46:40 145.825 FM, Beacon 2401.500 USB
Sapphire 20 Sep 21:39:12 21:44:37 64° 59° (ENE) 21:49:59 437.095 MHz 1200 baud AX-25 AFSK
UKube-1 20 Sep 21:56:16 22:00:35 78° 75° (ENE) 22:04:56 145.840 MHz, 145.915 MHz
PCSat 20 Sep 22:06:08 22:11:34 72° 244° (WSW) 22:16:56 145.825 MHz
SO-50 20 Sep 22:27:26 22:31:48 56° 118° (ESE) 22:36:17 436.795 FM
HO-68 20 Sep 22:38:17 22:44:24 30° 264° (W) 22:50:33 435.675 MHz FM
KITSAT 1 20 Sep 22:51:17 22:55:59 16° 332° (NNW) 23:00:42 435.175 FM
FUNcube-1 20 Sep 23:07:27 23:11:48 63° 259° (W) 23:16:19 145.950 - 145.970 MHz USB
Oscar 11 20 Sep 23:15:41 23:18:57 21° 266° (W) 23:22:16 145.825 FM, Beacon 2401.500 USB
Sapphire 20 Sep 23:24:03 23:27:28 17° 256° (WSW) 23:30:53 437.095 MHz 1200 baud AX-25 AFSK
UOSAT-12 20 Sep 23:58:25 00:02:42 40° 115° (ESE) 00:07:05 437.025 FM, 437.400 FM
SO-50 21 Sep 00:09:27 00:12:43 19° 317° (NW) 00:16:03 436.795 FM
Saudisat 1A 21 Sep 01:08:29 01:11:41 19° 44° (NE) 01:14:51 436.775 MHz
Oscar 16 21 Sep 01:37:32 01:40:10 14° 90° (E) 01:42:46 437.025 USB, Beacon 2401.1428
UOSAT-12 21 Sep 01:39:04 01:42:58 26° 313° (NW) 01:46:57 437.025 FM, 437.400 FM
PANSAT 21 Sep 01:54:13 01:55:31 11° 170° (S) 01:56:48 not established
JAS-1B 21 Sep 02:13:03 02:16:21 16° 91° (E) 02:19:39 435.800 - 435.900 CW/SSB
ITAMSAT 1 21 Sep 02:23:24 02:26:31 16° 91° (E) 02:29:37 435.822 SSB
ISS 21 Sep 02:25:15 02:28:26 44° 138° (SE) 02:31:37 145.800 FM
Uribyol 2 21 Sep 02:26:52 02:30:27 18° 92° (E) 02:34:01 436.500 FM
Oscar 19 21 Sep 02:35:48 02:40:50 50° 100° (E) 02:45:49 437.125 CW, 437.150 USB
RS-15 21 Sep 02:42:27 02:48:29 17° 98° (E) 02:54:26 29.354 - 29.394 USB, Beacon 29.352 USB
Saudisat 1A 21 Sep 02:47:15 02:51:34 54° 242° (WSW) 02:55:51 436.775 MHz
KITSAT 1 21 Sep 02:49:31 02:55:13 20° 34° (NE) 03:00:53 435.175 FM
TMSAT-1 21 Sep 02:57:22 02:58:51 11° 89° (E) 03:00:19 436.925 FM
AO-27 21 Sep 02:57:32 03:02:16 34° 97° (E) 03:07:00 436.795 MHz FM
Oscar 16 21 Sep 03:14:50 03:19:59 67° 286° (WNW) 03:25:05 437.025 USB, Beacon 2401.1428
AO-Echo 21 Sep 03:16:09 03:20:59 62° 101° (ESE) 03:25:56 ?
